This is the latest recevied weather packets stored in our database for station/object KB4MOX. If no packets are shown the sender has not sent any weather packets the latest 10 day(s).
| Time | Temp. | Humidity | Pressure | Rain* | Wind** | Luminosity | Snow |
|---|---|---|---|---|---|---|---|
| 1788017653 | 27.78° C | 76% | 1021.7 hPa | 0 mm | - | 538 W/m² | - |
| 1788017350 | 27.22° C | 76% | 1021.7 hPa | 0 mm | - | 219 W/m² | - |
| 1788017054 | 27.22° C | 77% | 1021.7 hPa | 0 mm | - | 369 W/m² | - |
| 1788016745 | 27.78° C | 76% | 1021.5 hPa | 0 mm | - | 224 W/m² | - |
| 1788016443 | 27.78° C | 77% | 1021.4 hPa | 0 mm | - | 177 W/m² | - |
| 1788016137 | 27.22° C | 78% | 1021.5 hPa | 0 mm | - | 239 W/m² | - |
| 1788015836 | 26.67° C | 79% | 1021.5 hPa | 0 mm | - | 204 W/m² | - |
| 1788015531 | 26.11° C | 81% | 1021.5 hPa | 0 mm | - | 173 W/m² | - |
| 1788015226 | 26.67° C | 80% | 1021.4 hPa | 0 mm | - | 181 W/m² | - |
| 1788014924 | 26.67° C | 80% | 1021.3 hPa | 0 mm | - | 181 W/m² | - |
| 1788014619 | 26.11° C | 82% | 1021.4 hPa | 0 mm | - | 147 W/m² | - |
| 1788014315 | 26.11° C | 83% | 1021.4 hPa | 0 mm | - | 145 W/m² | - |
| 1788014010 | 25.56° C | 83% | 1021.4 hPa | 0 mm | - | 111 W/m² | - |
| 1788013710 | 25.56° C | 83% | 1021.4 hPa | 0 mm | - | 151 W/m² | - |
| 1788013409 | 26.11° C | 82% | 1021.5 hPa | 0 mm | - | 158 W/m² | - |
| 1788013109 | 25.56° C | 84% | 1021.5 hPa | 0 mm | - | 134 W/m² | - |
| 1788012808 | 25° C | 84% | 1021.5 hPa | 0 mm | - | 119 W/m² | - |
| 1788012503 | 25.56° C | 84% | 1021.4 hPa | 0 mm | - | 103 W/m² | - |
| 1788012203 | 25.56° C | 83% | 1021.6 hPa | 0 mm | - | 181 W/m² | - |
| 1788011902 | 25° C | 86% | 1021.5 hPa | 0 mm | - | 179 W/m² | - |
| 1788011601 | 25° C | 86% | 1021.4 hPa | 0 mm | - | 112 W/m² | - |
| 1788011297 | 24.44° C | 86% | 1021.5 hPa | 0 mm | - | 98 W/m² | - |
| 1788010995 | 24.44° C | 87% | 1021.5 hPa | 0 mm | - | 92 W/m² | - |
| 1788010691 | 23.89° C | 88% | 1021.4 hPa | 0 mm | - | 86 W/m² | - |
| 1788010390 | 23.89° C | 89% | 1021.3 hPa | 0 mm | - | 143 W/m² | - |
* Rain latest hour (hover to see other rain measurements)
** Current wind speed in m/s (hover to see current wind gust speed)